Albany, NY

9:47 PM EST on November 16, 2019 (GMT -0500)
Albany International

Weather History for KALB - September, 2019

Change the Weather History Date:

Friday, September 20, 2019

  Actual Average Record
Temperature  
Mean Temperature 61 °F 60 °F  
Max Temperature 79 °F 71 °F 90 °F (1946)
Min Temperature 42 °F 50 °F 30 °F (1979)
Degree Days  
Heating Degree Days 4 6  
Month to date heating degree days 52 64  
Since 1 July heating degree days 54 87  
Cooling Degree Days 0 1  
Month to date cooling degree days 24 44  
Year to date cooling degree days 747 587  
Growing Degree Days 10 (Base 50)    
Moisture  
Dew Point 47 °F    
Average Humidity 62    
Maximum Humidity 89    
Minimum Humidity 35    
Precipitation  
Precipitation 0.00 in 0.12 in 1.54 in (1977)
Month to date precipitation 1.80 2.10  
Year to date precipitation 30.78 28.25  
Sea Level Pressure  
Sea Level Pressure 30.23 in    
Wind  
Wind Speed 1 mph (SSE)    
Max Wind Speed 6 mph    
Max Gust Speed 8 mph    
Visibility 10 miles    
Events Fog    
T = Trace of Precipitation, MM = Missing Value Source: NWS Daily Summary

Daily Weather History Graph

Daily Weather History Graph

Search for Another Location

Airport or City:

Astronomy

Sep. 20, 2019 Rise Set
Actual Time 6:40 AM EDT 6:56 PM EDT
Civil Twilight 6:11 AM EDT 7:24 PM EDT
Nautical Twilight 5:38 AM EDT 7:57 PM EDT
Astronomical Twilight 5:04 AM EDT 8:31 PM EDT
Moon 10:36 PM EDT (9/20) 12:50 PM EDT (9/20)
Length of Visible Light 13h 12m
Length of Day
12h 16m
Waning Gibbous, 65% of the Moon is Illuminated
Sep 20
Waning Gibbous
Sep 21
Last Quarter
Sep 28
New
Oct 5
First Quarter
Oct 13
Full

Hourly Weather History & Observations

Time (EDT) Temp. Dew Point Humidity Pressure Visibility Wind Dir Wind Speed Gust Speed Precip Events Conditions
12:51 AM 48.0 °F 42.1 °F 80% 30.27 in 10.0 mi Calm Calm - N/A   Scattered Clouds
1:51 AM 45.0 °F 41.0 °F 86% 30.27 in 10.0 mi Calm Calm - N/A   Scattered Clouds
2:51 AM 46.0 °F 42.1 °F 86% 30.26 in 10.0 mi Calm Calm - N/A Fog Patches of Fog
3:51 AM 45.0 °F 41.0 °F 86% 30.26 in 10.0 mi Calm Calm - N/A   Partly Cloudy
4:51 AM 44.1 °F 39.0 °F 82% 30.27 in 10.0 mi Calm Calm - N/A   Scattered Clouds
5:51 AM 44.1 °F 39.9 °F 85% 30.27 in 10.0 mi Calm Calm - N/A   Partly Cloudy
6:51 AM 43.0 °F 37.9 °F 82% 30.28 in 10.0 mi Calm Calm - N/A Fog Patches of Fog
7:51 AM 48.0 °F 43.0 °F 83% 30.29 in 10.0 mi SSW 4.6 mph - N/A   Scattered Clouds
8:51 AM 52.0 °F 45.0 °F 77% 30.29 in 10.0 mi SSW 3.5 mph - N/A   Scattered Clouds
9:51 AM 57.0 °F 46.9 °F 69% 30.29 in 10.0 mi South 4.6 mph - N/A   Scattered Clouds
10:51 AM 62.1 °F 46.9 °F 58% 30.27 in 10.0 mi Calm Calm - N/A   Scattered Clouds
11:51 AM 66.0 °F 48.9 °F 54% 30.25 in 10.0 mi Calm Calm - N/A   Scattered Clouds
12:51 PM 71.1 °F 50.0 °F 47% 30.22 in 10.0 mi Variable 4.6 mph - N/A   Scattered Clouds
1:51 PM 73.9 °F 50.0 °F 43% 30.19 in 10.0 mi Calm Calm - N/A   Scattered Clouds
2:51 PM 75.9 °F 48.0 °F 37% 30.17 in 10.0 mi ENE 4.6 mph - N/A   Scattered Clouds
3:51 PM 75.9 °F 48.9 °F 38% 30.16 in 10.0 mi Calm Calm - N/A   Scattered Clouds
4:51 PM 78.1 °F 50.0 °F 37% 30.15 in 10.0 mi East 3.5 mph - N/A   Partly Cloudy
5:51 PM 78.1 °F 48.9 °F 36% 30.14 in 10.0 mi Calm Calm - N/A   Partly Cloudy
7:51 PM 64.0 °F 54.0 °F 70% 30.17 in 10.0 mi Calm Calm - N/A   Partly Cloudy
8:51 PM 61.0 °F 53.1 °F 75% 30.18 in 10.0 mi Calm Calm - N/A   Partly Cloudy
9:51 PM 59.0 °F 52.0 °F 78% 30.19 in 10.0 mi Calm Calm - N/A   Partly Cloudy
10:51 PM 55.9 °F 51.1 °F 84% 30.18 in 10.0 mi Calm Calm - N/A   Partly Cloudy
11:51 PM 57.0 °F 51.1 °F 81% 30.18 in 10.0 mi SSW 4.6 mph - N/A   Partly Cloudy